ELEKTRO (GOMS)

Satellite information

Favourite Embed

Satellite Type and Status

PAYLOADIN ORBIT

Key statistics

Satellite ELEKTRO (GOMS) at a glance.

Uptime

11270

Days in orbit

Revolutions

≈ 1.0

Per day

Orbit

OTHER

Other

Inclination

14.6

Latest

Satellite identification and parameters

Extended collection of information and parameters for ELEKTRO (GOMS).

Object identification

Identified? True

Debris? False

Object name: ELEKTRO (GOMS)

International designator: 1994-069A

Object number (NORAD): 23327

Object ID (CCSDS): 23327

Country: COMMONWEALTH OF INDEPENDENT STATES (CIS)

Current information (Y/N): Y

RCS size: LARGE

Orbital parameters

Period: 1436.102 minutes

Inclination: 14.5767 deg

SMA: 42164.829 km

Apoapsis: 35826.325 km

Periapsis: 35747.062 km

RAAN: 351.4588 deg

Eccentricy: 0.00093991

Argument of periapsis: 246.5858 deg

Mean anomaly: 127.3656 deg

Mean motion: 1.0027144 rev/day

Mean motion (dot): -0.00000041 rev/day2

B* drag term: 0.0 1/REarth

Two-line elements (TLE)

Creation date: Sept. 7, 2025, 3:09 a.m.

Reference frame: TEME

Reference center: EARTH

Epoch: Sept. 6, 2025, 8:44 p.m. UTC

TLE line 0: 0 ELEKTRO (GOMS)

TLE line 1: 1 23327U 94069A 25249.86444950 -.00000041 00000-0 00000-0 0 9993

TLE line 2: 2 23327 14.5767 351.4588 0009399 246.5858 127.3656 1.00271440113038

Live tracking on map

Real-time ground track for satellite ELEKTRO (GOMS).

In-orbit conjunctions

A list of the most updated potential collisions computed for object ELEKTRO (GOMS).

Target Orbit TCA Probability of collision Miss distance Type
RADUGA 32 OTHER 2025-06-05 21:36:28 TBA 4086.0 (m) PAYLOAD
GORIZONT 20 OTHER 2025-05-29 06:09:05 TBA 2217.0 (m) PAYLOAD

Associated space launch

Elektro (or GOMS, Geostationary Operational Meteorological Satellite) is a three-axis stabilized satellite with a payload that includes a three-channel, earth-imaging radiometer as well as comprehensive communications facilities together with a capability to measure space radiation spectra and densities. It is the space component of the Planeta-C Meteorological Space System.

ELEKTRO (GOMS) was lifted into orbit during the mission ‘Proton | Elektro’, on board a Proton space rocket.

The launch took place on Oct. 31, 1994, 2:30 p.m. from 81/23 (81L).

For more information about the launch, click the button.

Launch to space Proton | Elektro
Proton | Elektro

Agency: N/A

Status: Launch Successful

Launch date: Oct. 31, 1994, 2:30 p.m. UTC

Rocket: Proton

Launch pad: 81/23 (81L)

Location: Baikonur Cosmodrome, Republic of Kazakhstan

...

Latest news about this satellite

There are no fresh news available about this satellite. Check back as we update our databases every day.


Newsletter sign-up

Weekly statistics, charts and insights to help you stay on top of the space industry.